Regional Weather Roundup
Issued by NWS Columbia, SC

Home |  Current Version |  Previous Version |  Text Only |  Print | Product List |  Glossary On
Versions: 1 2 3 4 5 6 7 8 9 10 11 12 13 14 15 16 17 18 19 20 21 22 23 24 25 26 27
935
ASUS42 KCAE 240410
RWRCAE
REGIONAL WEATHER ROUNDUP
NATIONAL WEATHER SERVICE COLUMBIA SC
1200 AM EDT WED JUL 24 2024

NOTE: "FAIR" INDICATES FEW OR NO CLOUDS BELOW 12,000 FEET WITH NO
SIGNIFICANT WEATHER AND/OR OBSTRUCTIONS TO VISIBILITY.

NOT ALL STATIONS ARE QUALITY CONTROLLED BY THE NATIONAL
WEATHER SERVICE. USE DATA WITH CAUTION...ESPECIALLY
DEWPOINT OBSERVATIONS.

SCZ001>059-115-116-135>137-GAZ040-063>065-077-240500-
...UPSTATE SOUTH CAROLINA...

CITY           SKY/WX    TMP DP  RH WIND       PRES   REMARKS
ANDERSON       MOCLDY    74  72  93 CALM      30.16F
LIBERTY        MOCLDY    73  73 100 CALM      30.17S
SPARTANBURG    MOCLDY    73  72  94 SW3       30.16R
CLEMSON        MOCLDY    73  73 100 CALM      30.17S
GREENVILLE     MOCLDY    74  72  93 SW6       30.17S
GREENWOOD      TSTM      72  72 100 SE3       30.18R FOG
GREER          MOCLDY    74  71  91 SW6       30.16S
ROCK HILL      PTCLDY    73  73 100 CALM      30.15R
LAURENS        LGT RAIN  73  73 100 SW6       30.17S


...CENTRAL SOUTH CAROLINA...

CITY           SKY/WX    TMP DP  RH WIND       PRES   REMARKS
COLUMBIA APT   TSTM      78  75  90 VRB3G18   30.13R FOG
COLUMBIA OWENS CLOUDY    77  75  93 CALM      30.14R
MCENTIRE ANGB  CLOUDY    79  76  89 CALM      30.11S
ORANGEBURG     MOCLDY    81  77  88 S7        30.15S
SUMTER SHAW    PTCLDY    83  76  80 SW6       30.12R
AIKEN          CLOUDY    76  72  89 NW16G28   30.20R
BARNWELL       CLOUDY    82  77  83 S5        30.15S
MANNING        PTCLDY    81  73  78 S8        30.14S
CAMDEN         LGT RAIN  79  75  89 CALM      30.15R
LANCASTER      MOCLDY    75  73  94 CALM      30.16R
WINNSBORO      CLOUDY    73  73 100 CALM      30.14F


...EASTERN AND COASTAL SOUTH CAROLINA...

CITY           SKY/WX    TMP DP  RH WIND       PRES   REMARKS
MYRTLE BEACH   PTCLDY    83  83 100 S15       30.16R HX  99
N MYRTLE BCH   PTCLDY    83  79  88 SW15      30.15R
CONWAY         PTCLDY    79  77  94 S3        30.16R
MARION         PTCLDY    79  79 100 S7        30.15R
HARTSVILLE     RAIN      79  75  89 CALM      30.14R
FLORENCE       PTCLDY    81  75  82 S6        30.14R
DARLINGTON     MOCLDY    78  77  96 CALM      30.14R
CHARLESTON APT PTCLDY    83  77  82 S10       30.16R
MOUNT PLEASANT PTCLDY    84  82  94 S10       30.16R HX 101
WALTERBORO     PTCLDY    79  77  94 S5        30.17R
BEAUFORT       PTCLDY    87  80  79 S8        30.16R HX 103
HILTON HEAD    MOCLDY    84  77  79 S12G17    30.18R


...EASTERN GEORGIA...

CITY           SKY/WX    TMP DP  RH WIND       PRES   REMARKS
AUGUSTA BUSH F CLOUDY    81  76  84 N8        30.14R
AUGUSTA DANIEL CLOUDY    77  73  87 N9G20     30.17R
THOMSON        TSTM     N/A N/A N/A W3        30.21R FOG
WASHINGTON     CLOUDY    73  72  96 S6        30.20R
SYLVANIA       MOCLDY    81  78  91 CALM      30.17R
STATESBORO     MOCLDY    80  73  79 S7        30.16R
SAVANNAH       MOCLDY    82  77  84 S9        30.17R


...SOUTHERN NORTH CAROLINA...

CITY           SKY/WX    TMP DP  RH WIND       PRES   REMARKS
CHARLOTTE      MOCLDY    73  71  93 SE3       30.15R
MONROE         PTCLDY    73  71  93 CALM      30.14S
WADESBORO      MOCLDY    75  74  97 CALM      30.13S
ROCKINGHAM     MOCLDY    76  75  94 SE3       30.15R
RUTHERFORDTON  CLOUDY    70  70 100 CALM      30.17R
ASHEVILLE      MOCLDY    71  69  93 CALM      30.22R

$$